Regional Weather Roundup
Issued by NWS

Home | Current Version | Previous Version | Text Only | Print | Product List | Glossary Off
Versions: 1 2 3 4 5 6 7 8 9 10 11 12 13 14 15 16 17 18 19 20 21 22 23 24 25 26 27 28 29 30 31 32 33 34 35 36 37 38 39 40 41 42 43 44 45 46 47 48 49 50

000
ASUS45 KPSR 160100
RWRAZ

PRELIMINARY ARIZONA REGIONAL HOURLY WEATHER ROUNDUP
NATIONAL WEATHER SERVICE PHOENIX AZ
600 PM MST TUE APR 15 2014

NOTE: FAIR INDICATES FEW OR NO CLOUDS BELOW 12,000 FEET WITH NO
SIGNIFICANT WEATHER AND/OR OBSTRUCTIONS TO VISIBILITY.

AZZ001>003-036-160200-
NORTHWEST ARIZONA

CITY           SKY/WX    TMP DP  RH WIND       PRES   REMARKS
KINGMAN        PTSUNNY   74 -11   3 SW13      29.87F
$$

AZZ004>008-015-016-018-160200-
NORTH CENTRAL ARIZONA

CITY           SKY/WX    TMP DP  RH WIND       PRES   REMARKS
GRAND CANYON   MOSUNNY   62  -5   6 VRB6      29.98S
WILLIAMS       PTSUNNY   61   0   8 SW14G20   30.06F
PRESCOTT       CLOUDY    69   2   7 SW12      29.94F
FLAGSTAFF      PTSUNNY   58   5  12 SW13      30.02S
PAYSON         CLOUDY    66   9  10 VRB5      29.97S
PAGE           MOSUNNY   73   9   8 SE5       29.82F
$$

AZZ009>014-017-160200-
NORTHEAST ARIZONA

CITY           SKY/WX    TMP DP  RH WIND       PRES   REMARKS
WINSLOW        NOT AVBL
SAINT JOHNS    MOCLDY    67   1   7 SW17      29.93S
WINDOW ROCK    CLOUDY    60 -11   5 W9        29.98F
SHOW LOW       CLOUDY    59   5  11 SW13      30.02F
$$

AZZ023-160200-
GREATER PHOENIX AREA

CITY           SKY/WX    TMP DP  RH WIND       PRES   REMARKS
PHOENIX        MOSUNNY   87   8   5 SE3       29.73F
GLENDALE       MOSUNNY   88   9   5 NE3       29.75F
LUKE AFB       NOT AVBL
DEER VALLEY    SUNNY     84   1   4 W7        29.76F
SCOTTSDALE     SUNNY     85  10   6 S3        29.77F
MESA-GATEWAY   MOSUNNY   84  12   6 W3        29.77F
CHANDLER       MOSUNNY   86  14   7 VRB5      29.75F
$$

AZZ027-028-160200-
SOUTHWEST MARICOPA COUNTY AND PINAL COUNTY

CITY           SKY/WX    TMP DP  RH WIND       PRES   REMARKS
CASA GRANDE    SUNNY     86  25  10 W7        29.77S
GILA BEND      CLEAR     90   9   5 W6        29.75F
$$

AZZ503-504-507>509-160200-
SOUTHEAST ARIZONA

CITY           SKY/WX    TMP DP  RH WIND       PRES   REMARKS
TUCSON         SUNNY     86   4   4 NW14      29.80S
DAVIS-MONTHAN  SUNNY     84  11   6 NW14      29.79S
RYAN FIELD       N/A     84  12   6 NW13      29.79F
NOGALES        SUNNY     82   7   6 W14       29.86F
SIERRA VISTA   PTCLDY    79  -2   4 W16G22    29.90S
SAFFORD        PTCLDY    79   8   6 E7        29.83F
$$

AZZ020-021-025-026-031-160200-
SOUTHWEST ARIZONA

CITY           SKY/WX    TMP DP  RH WIND       PRES   REMARKS
YUMA           NOT AVBL
$$

CAZ031-033-041-043-047-048-061-160200-
SOUTHERN CALIFORNIA

CITY           SKY/WX    TMP DP  RH WIND       PRES   REMARKS
DOWNTOWN L.A.  SUNNY     66  52  60 W6        29.83F
L.A. AIRPORT   CLOUDY    58  52  80 W12       29.85F
SAN DIEGO      MOSUNNY   65  53  65 W9        29.87S
BURBANK        SUNNY     77  44  30 SE8       29.82F
ONTARIO        MOSUNNY   79  37  22 SW12      29.82F
RIVERSIDE      SUNNY     79  45  29 W10       29.82S
PALM SPRINGS   SUNNY     92  24   8 SE9       29.72F
EL CENTRO NAS  MOSUNNY   90  17   7 SE6       29.70F
IMPERIAL       SUNNY     90  17   7 CALM      29.70F
BLYTHE         SUNNY     89  11   5 SE7       29.72F
$$

NVZ020-UTZ003-160200-
SOUTHERN NEVADA-UTAH

CITY           SKY/WX    TMP DP  RH WIND       PRES   REMARKS
LAS VEGAS      NOT AVBL
SALT LAKE CITY CLOUDY    62  25  24 N22G33    29.80R
$$

NMZ009-TXZ055-160200-
NEW MEXICO-WEST TEXAS

CITY           SKY/WX    TMP DP  RH WIND       PRES   REMARKS
ALBUQUERQUE    MOCLDY    65  12  12 SW16G23   29.92S
EL PASO        MOCLDY    70   3   7 SE6       29.94F
$$


........................KEY........................
SKY/WX - SKY CONDITION/WEATHER
TMP    - TEMPERATURE IN FAHRENHEIT
DP     - DEW POINT IN FAHRENHEIT
RH     - RELATIVE HUMIDITY IN PERCENT
WIND   - DIRECTION AND SPEED IN MILES PER HOUR (MPH)
VRB    - VARIABLE WIND DIRECTION
PRES   - MEAN SEA LEVEL PRESSURE IN INCHES OF MERCURY
         F - FALLING PRESSURE   R - RISING PRESSURE
         S - STEADY PRESSURE
VSB    - VISIBILITY IN MILES
HX     - HEAT INDEX IN FAHRENHEIT
WCI    - WIND CHILL INDEX IN FAHRENHEIT
TC     - TEMPERATURE IN CELSIUS WHICH IS ALSO KNOWN AS
         TEMPERATURE IN CENTIGRADE
AFB    - AIR FORCE BASE
         LUKE AFB IS LUKE AIR FORCE BASE
         DAVIS-MONTHAN IS DAVIS-MONTHAN AIR FORCE BASE
NAS    - NAVAL AIR STATION
         EL CENTRO NAS IS EL CENTRO NAVAL AIR STATION
N/A    - NOT AVAILABLE



USA.gov is the U.S. government's official web portal to all federal, state and local government web resources and services.